�ϑ��N����,2023/9/27,,,
�ϑ���,�X�R��u,,,
�ϑ��n�_,B58,,,
���x�v�ԍ�,A032,,,
,,,,
����,�C��,����,����,���l
9:30:00,-999,-999,,
9:31:00,-999,-999,,
9:32:00,-999,-999,,
9:33:00,-999,-999,,
9:34:00,-999,-999,,
9:35:00,-999,-999,,
9:36:00,-999,-999,,
9:37:00,-999,-999,,
9:38:00,-999,-999,,
9:39:00,-999,-999,,
9:40:00,-999,-999,,
9:41:00,-999,-999,,
9:42:00,-999,-999,,
9:43:00,-999,-999,,
9:44:00,-999,-999,,
9:45:00,-999,-999,,
9:46:00,-999,-999,,
9:47:00,-999,-999,,
9:48:00,-999,-999,,
9:49:00,-999,-999,,
9:50:00,-999,-999,,
9:51:00,-999,-999,,
9:52:00,-999,-999,,
9:53:00,-999,-999,,
9:54:00,-999,-999,,
9:55:00,-999,-999,,
9:56:00,33,1,,���A
9:57:00,32.3,1,,
9:58:00,31.2,1,,
9:59:00,30.2,1,,
10:00:00,30,1,,
10:01:00,30.5,2,,����
10:02:00,31.2,1,,
10:03:00,31.6,1,,
10:04:00,31.2,1,,
10:05:00,31.2,2,,
10:06:00,30.8,1,,
10:07:00,30.7,1,,
10:08:00,31.5,8,,
10:09:00,32,4,,
10:10:00,32.5,6,,
10:11:00,32.4,5,,
10:12:00,32.2,5,,
10:13:00,32,7,,
10:14:00,32,6,,���A
10:15:00,30.5,1,,
10:16:00,30,2,,
10:17:00,30,2,,����
10:18:00,30.5,8,,
10:19:00,30,8,,���A
10:20:00,30.3,1,,
10:21:00,30.8,2,,����
10:22:00,30.7,1,,
10:23:00,30.7,1,,
10:24:00,30.2,8,,
10:25:00,30.5,7,,
10:26:00,30.7,8,,
10:27:00,30.5,8,,���A
10:28:00,30.1,8,,
10:29:00,30.3,8,,����
10:30:00,30,8,,���A
10:31:00,30.2,8,,����
10:32:00,30.7,3,,
10:33:00,31,6,,����
10:34:00,31.2,6,,
10:35:00,31.6,8,,
10:36:00,31.8,6,,
10:37:00,31,8,,
10:38:00,30.2,8,,
10:39:00,30.8,6,,
10:40:00,31,6,,
10:41:00,31,8,,
10:42:00,30.5,8,,
10:43:00,30.2,8,,
10:44:00,30,1,,
10:45:00,30,2,,
10:46:00,30,1,,
10:47:00,29.7,7,,
10:48:00,29.7,1,,
10:49:00,29.9,1,,����
10:50:00,30,8,,���A
10:51:00,30.5,2,,
10:52:00,31,2,,
10:53:00,31.2,2,,
10:54:00,31.2,0,,
10:55:00,31.6,0,,����
10:56:00,31.8,2,,
10:57:00,31.6,1,,
10:58:00,31.9,1,,
10:59:00,31,1,,���A
11:00:00,30.3,1,,
11:01:00,30.1,2,,����
11:02:00,30.7,2,,
11:03:00,31,0,,���A
11:04:00,31.2,0,,����
11:05:00,31.9,2,,���A
11:06:00,31.4,2,,
11:07:00,32,2,,
11:08:00,32,4,,
11:09:00,32,1,,
11:10:00,31,1,,
11:11:00,31,2,,
11:12:00,31,1,,
11:13:00,30.8,1,,
11:14:00,30.8,0,,
11:15:00,31,2,,
11:16:00,31,0,,
11:17:00,31.2,2,,
11:18:00,30.8,1,,
11:19:00,31.1,4,,
11:20:00,31,0,,
11:21:00,30.7,1,,
11:22:00,30.7,1,,
11:23:00,37.8,1,,
11:24:00,30.2,1,,����
11:25:00,30.5,2,,
11:26:00,30.8,3,,
11:27:00,31,0,,
11:28:00,31.8,0,,
11:29:00,32.2,7,,
11:30:00,31.5,1,,
